Flight Track Log - Related Links

Times and Time Zones

All times are in EDT time to prevent confusion due to time zone crossing. See the N762NC flight status page for this flight to view local times or setup timezone preferences in your user account.

Time Position Orientation Groundspeed Altitude Reporting Facility
EDT Latitude Longitude Course Direction KTS MPH feet Rate Location/Type
03:37PM 33.6667 -84.3500 260° West 235 270 3,400  Level Atlanta TRACON
03:38PM 33.7000 -84.2833 59° Northeast 277 319 5,800 2,579 Climbing Atlanta TRACON
03:39PM 33.7667 -84.2833 360° North 289 333 8,300 2,371 Climbing Atlanta TRACON
03:41PM 33.7808 -84.4936 275° West 270 311 14,100 2,286 Climbing Atlanta Center
03:42PM 33.5365 -84.9851 260° West  Level FlightAware Approximate
03:42PM 33.7431 -84.5858 244° Southwest 287 330 16,300  Level Atlanta Center
03:43PM 33.7008 -84.6756 241° Southwest 300 345 18,200 1,750 Climbing Atlanta Center
03:44PM 33.6586 -84.7650 240° Southwest 310 357 19,800 1,100 Climbing Atlanta Center
03:45PM 33.6119 -84.8594 239° Southwest 324 373 20,400 1,050 Climbing Atlanta Center
03:46PM 33.5592 -84.9636 239° Southwest 369 425 21,900 1,600 Climbing Atlanta Center
03:47PM 33.5081 -85.0753 241° Southwest 382 440 23,600 1,500 Climbing Atlanta Center
03:48PM 33.4569 -85.1867 241° Southwest 388 447 24,900 1,250 Climbing Atlanta Center
03:49PM 33.3994 -85.3103 241° Southwest 388 447 26,100 1,150 Climbing Atlanta Center
03:50PM 33.3586 -85.4342 248° West 398 458 27,200 950 Climbing Atlanta Center
03:51PM 33.3297 -85.5628 255° West 405 466 28,000 400 Climbing Atlanta Center
03:52PM 33.2928 -85.6889 251° West 400 460 28,000  Level Atlanta Center
03:53PM 33.2594 -85.8225 253° West 414 476 28,000  Level Atlanta Center
03:54PM 33.2014 -85.9356 238° Southwest 403 464 28,000 -50 Level Atlanta Center
03:55PM 33.1061 -86.0203 217° Southwest 411 473 27,900  Descending Atlanta Center
03:56PM 33.0089 -86.0997 214° Southwest 411 473 28,000 50 Climbing Atlanta Center
03:57PM 32.9200 -86.1694 213° Southwest 427 491 28,000  Level Atlanta Center
03:58PM 32.8269 -86.2414 213° Southwest 427 491 28,000  Level Atlanta Center
03:59PM 32.7317 -86.3131 212° Southwest 420 483 28,000  Level Atlanta Center
04:00PM 32.6386 -86.3872 214° Southwest 415 478 28,000  Level Atlanta Center
04:01PM 32.5433 -86.4586 212° Southwest 415 478 28,000  Level Atlanta Center
04:02PM 32.4414 -86.5419 215° Southwest 415 478 28,000  Level Atlanta Center
04:03PM 32.3439 -86.6153 212° Southwest 415 478 28,000  Level Atlanta Center
04:04PM 32.2503 -86.6911 214° Southwest 415 478 28,000  Level Atlanta Center
04:05PM 32.1572 -86.7547 210° Southwest 420 483 28,000  Level Atlanta Center
04:06PM 32.0617 -86.8303 214° Southwest 420 483 28,000  Level Atlanta Center
04:07PM 31.9639 -86.9081 214° Southwest 425 489 28,000  Level Atlanta Center
04:08PM 31.8661 -86.9783 211° Southwest 425 489 28,000  Level Atlanta Center
04:09PM 31.7642 -87.0506 211° Southwest 425 489 28,000 -400 Level Atlanta Center
04:10PM 31.6622 -87.1253 212° Southwest 414 476 27,200 -882 Descending Atlanta Center
04:11PM 31.6056 -87.1572 206° Southwest 399 459 26,500 -1,558 Descending Houston Center
04:12PM 31.5142 -87.2269 213° Southwest 394 453 24,500 -1,210 Descending Houston Center
04:13PM 31.4192 -87.3322 223° Southwest 390 449 24,000 -242 Descending Houston Center
04:14PM 31.3433 -87.4236 226° Southwest 391 450 24,000 -339 Level Houston Center
04:15PM 31.2706 -87.5114 226° Southwest 379 436 23,300 -2,226 Descending Houston Center
04:16PM 31.1992 -87.5981 226° Southwest 370 426 19,400 -3,919 Descending Houston Center
04:17PM 31.1256 -87.6858 226° Southwest 377 434 15,200 -3,000 Descending Houston Center
04:18PM 31.0761 -87.7836 239° Southwest 347 399 13,200 -2,565 Descending Houston Center
04:19PM 31.0308 -87.8828 242° Southwest 288 331 9,900 -3,048 Descending Houston Center
04:20PM 30.9881 -87.9636 238° Southwest 290 334 6,900 -2,323 Descending Houston Center
04:21PM 30.9464 -88.0353 236° Southwest 270 311 5,100 -1,742 Descending Houston Center
04:22PM 30.9047 -88.1006 233° Southwest 258 297 3,300 -1,500 Descending Houston Center
04:23PM 30.8661 -88.1636 235° Southwest 246 283 2,000 -629 Descending Houston Center
04:24PM 30.8258 -88.2247 233° Southwest 240 276 2,000 -48 Level Houston Center
04:25PM 30.7853 -88.2794 229° Southwest 231 266 1,900 -339 Descending Houston Center
04:27PM 30.7442 -88.2878 190° South 187 215 1,300 -726 Descending Houston Center
04:28PM 30.7061 -88.2578 146° Southeast 152 175 400 -871 Descending Houston Center

Login

Don't have an account? Register now (free) for customized features, flight alerts, and more!